When you browse on this site, cookies collect data to enhance your experience and personalize the content and advertising you see.
Visit our Privacy Policy to learn more. By continuing to use the site, you agree to this use of cookies and data.
  • în România
  • Lista ţărilor
  • Pe 7 zile
  • Temperatura apei
  • Meteo pe hartă
  • Widget-uri
  • user-avatar
    Intrare

    Meteo pe oră la Siemianowice Śląskie

    Astăzi, 28 Ianuarie, Marţi

    Timp Temperatura Precipitaţii Vânt Presiune Umiditate
    00:00 -1°C° 0 mm 2 m/s 733 mmHg 82%
    01:00 -1°C° 0 mm 2 m/s 732 mmHg 84%
    02:00 -1°C° 0 mm 2 m/s 731 mmHg 84%
    03:00 -1°C° 0 mm 2 m/s 731 mmHg 83%
    04:00 +1°C° 0 mm 2 m/s 730 mmHg 83%
    05:00 +1°C° 0 mm 2 m/s 730 mmHg 82%
    06:00 +1°C° 0 mm 2 m/s 729 mmHg 80%
    07:00 +1°C° 0 mm 2 m/s 729 mmHg 78%
    08:00 +1°C° 0 mm 2 m/s 728 mmHg 77%
    09:00 +2°C° 0 mm 2 m/s 728 mmHg 76%
    10:00 +1°C° 0 mm 3 m/s 728 mmHg 75%
    11:00 +2°C° 0 mm 3 m/s 727 mmHg 74%
    12:00 +3°C° 0 mm 3 m/s 727 mmHg 73%
    13:00 +3°C° 0 mm 4 m/s 727 mmHg 72%
    14:00 +3°C° 0 mm 3 m/s 726 mmHg 75%
    15:00 +2°C° 0 mm 3 m/s 725 mmHg 78%
    16:00 +2°C° 0 mm 3 m/s 724 mmHg 82%
    17:00 0°C° 0.4 mm 4 m/s 725 mmHg 86%
    18:00 0°C° 0.4 mm 5 m/s 725 mmHg 89%
    19:00 0°C° 0.4 mm 5 m/s 725 mmHg 93%
    20:00 0°C° 0.1 mm 5 m/s 725 mmHg 91%
    21:00 0°C° 0.1 mm 5 m/s 725 mmHg 89%
    22:00 0°C° 0.1 mm 5 m/s 724 mmHg 87%
    23:00 0°C° 0 mm 5 m/s 725 mmHg 84%

    Mâine, 29 Ianuarie, Miercuri

    Timp Temperatura Precipitaţii Vânt Presiune Umiditate
    00:00 0°C° 0 mm 5 m/s 725 mmHg 80%
    01:00 -1°C° 0 mm 5 m/s 725 mmHg 77%
    02:00 -1°C° 0 mm 5 m/s 725 mmHg 77%
    03:00 -1°C° 0 mm 5 m/s 725 mmHg 77%
    04:00 -2°C° 0 mm 5 m/s 725 mmHg 77%
    05:00 -2°C° 0 mm 5 m/s 725 mmHg 76%
    06:00 -2°C° 0 mm 5 m/s 725 mmHg 75%
    07:00 -3°C° 0 mm 6 m/s 726 mmHg 74%
    08:00 -3°C° 0.2 mm 7 m/s 726 mmHg 77%
    09:00 -2°C° 0.2 mm 7 m/s 725 mmHg 80%
    10:00 -2°C° 0.2 mm 8 m/s 725 mmHg 83%
    11:00 -1°C° 0.5 mm 8 m/s 726 mmHg 79%
    12:00 -1°C° 0.5 mm 7 m/s 726 mmHg 74%
    13:00 0°C° 0.5 mm 7 m/s 727 mmHg 70%
    14:00 0°C° 0 mm 7 m/s 727 mmHg 72%
    15:00 -1°C° 0 mm 6 m/s 727 mmHg 73%
    16:00 -1°C° 0 mm 6 m/s 728 mmHg 75%
    17:00 0°C° 0 mm 5 m/s 728 mmHg 76%
    18:00 -1°C° 0 mm 5 m/s 729 mmHg 78%
    19:00 -1°C° 0 mm 5 m/s 729 mmHg 80%
    20:00 -1°C° 0.1 mm 5 m/s 730 mmHg 82%
    21:00 -1°C° 0.1 mm 5 m/s 730 mmHg 83%
    22:00 -2°C° 0.1 mm 6 m/s 730 mmHg 85%
    23:00 -2°C° 0.5 mm 6 m/s 731 mmHg 89%

    Poimâine, 30 Ianuarie, Joi

    Timp Temperatura Precipitaţii Vânt Presiune Umiditate
    00:00 -2°C° 0.5 mm 6 m/s 731 mmHg 93%
    01:00 -3°C° 0.5 mm 6 m/s 732 mmHg 97%
    02:00 -3°C° 0.3 mm 6 m/s 732 mmHg 96%
    03:00 -2°C° 0.3 mm 6 m/s 733 mmHg 95%
    04:00 -2°C° 0.3 mm 6 m/s 733 mmHg 94%
    05:00 -2°C° 0.1 mm 6 m/s 734 mmHg 90%
    06:00 -2°C° 0.1 mm 5 m/s 734 mmHg 86%
    07:00 -2°C° 0.1 mm 5 m/s 735 mmHg 83%
    08:00 -1°C° 0 mm 5 m/s 735 mmHg 80%
    09:00 -1°C° 0 mm 5 m/s 735 mmHg 77%
    10:00 -2°C° 0 mm 6 m/s 735 mmHg 74%
    11:00 -1°C° 0 mm 6 m/s 734 mmHg 72%
    12:00 -1°C° 0 mm 6 m/s 734 mmHg 71%
    13:00 +1°C° 0 mm 6 m/s 734 mmHg 69%
    14:00 0°C° 0 mm 5 m/s 734 mmHg 72%
    15:00 0°C° 0 mm 5 m/s 733 mmHg 75%
    16:00 0°C° 0 mm 5 m/s 733 mmHg 78%
    17:00 0°C° 0 mm 5 m/s 733 mmHg 79%
    18:00 0°C° 0 mm 5 m/s 733 mmHg 79%
    19:00 0°C° 0 mm 5 m/s 732 mmHg 79%
    20:00 0°C° 0 mm 5 m/s 732 mmHg 79%
    21:00 0°C° 0 mm 5 m/s 732 mmHg 79%
    22:00 0°C° 0 mm 5 m/s 731 mmHg 79%
    23:00 0°C° 0 mm 5 m/s 731 mmHg 78%

    31 Ianuarie, Vineri

    Timp Temperatura Precipitaţii Vânt Presiune Umiditate
    00:00 0°C° 0 mm 4 m/s 730 mmHg 77%
    01:00 0°C° 0 mm 4 m/s 730 mmHg 77%
    02:00 0°C° 0.3 mm 5 m/s 729 mmHg 79%
    03:00 0°C° 0.3 mm 5 m/s 728 mmHg 81%
    04:00 -1°C° 0.3 mm 6 m/s 728 mmHg 83%
    05:00 +1°C° 0.5 mm 6 m/s 727 mmHg 85%
    06:00 +2°C° 0.5 mm 6 m/s 727 mmHg 87%
    07:00 +2°C° 0.5 mm 6 m/s 727 mmHg 88%
    08:00 +3°C° 0.5 mm 6 m/s 727 mmHg 90%
    09:00 +3°C° 0.5 mm 6 m/s 727 mmHg 91%
    10:00 +3°C° 0.5 mm 5 m/s 727 mmHg 93%
    11:00 +4°C° 0.3 mm 6 m/s 727 mmHg 88%
    12:00 +5°C° 0.3 mm 6 m/s 727 mmHg 84%
    13:00 +7°C° 0.3 mm 6 m/s 727 mmHg 79%
    14:00 +7°C° 0.1 mm 6 m/s 728 mmHg 77%
    15:00 +7°C° 0.1 mm 6 m/s 728 mmHg 76%
    16:00 +7°C° 0.1 mm 6 m/s 728 mmHg 75%
    17:00 +7°C° 0 mm 6 m/s 729 mmHg 76%
    18:00 +5°C° 0 mm 6 m/s 730 mmHg 76%
    19:00 +5°C° 0 mm 6 m/s 730 mmHg 77%
    20:00 +6°C° 0 mm 5 m/s 731 mmHg 79%
    21:00 +6°C° 0 mm 5 m/s 731 mmHg 81%
    22:00 +6°C° 0 mm 4 m/s 731 mmHg 82%
    23:00 +6°C° 0 mm 4 m/s 731 mmHg 83%

    1 Februarie, Sâmbătă

    Timp Temperatura Precipitaţii Vânt Presiune Umiditate
    00:00 +6°C° 0 mm 4 m/s 731 mmHg 84%
    01:00 +6°C° 0 mm 4 m/s 732 mmHg 84%
    02:00 +5°C° 0.1 mm 4 m/s 731 mmHg 86%
    03:00 +5°C° 0.1 mm 3 m/s 731 mmHg 88%
    04:00 +5°C° 0.1 mm 3 m/s 731 mmHg 89%
    05:00 +5°C° 0.2 mm 3 m/s 731 mmHg 89%
    06:00 +6°C° 0.2 mm 4 m/s 731 mmHg 90%
    07:00 +6°C° 0.2 mm 4 m/s 731 mmHg 90%
    08:00 +6°C° 0.1 mm 4 m/s 731 mmHg 89%
    09:00 +6°C° 0.1 mm 5 m/s 731 mmHg 88%
    10:00 +6°C° 0.1 mm 5 m/s 731 mmHg 87%
    11:00 +7°C° 0.3 mm 5 m/s 730 mmHg 88%
    12:00 +7°C° 0.3 mm 6 m/s 730 mmHg 88%
    13:00 +7°C° 0.3 mm 6 m/s 730 mmHg 88%
    14:00 +7°C° 0.3 mm 6 m/s 730 mmHg 88%
    15:00 +7°C° 0.3 mm 6 m/s 729 mmHg 87%
    16:00 +7°C° 0.3 mm 6 m/s 729 mmHg 87%
    17:00 +7°C° 0.1 mm 5 m/s 729 mmHg 87%
    18:00 +7°C° 0.1 mm 5 m/s 729 mmHg 87%
    19:00 +7°C° 0.1 mm 5 m/s 729 mmHg 88%
    20:00 +7°C° 1 mm 5 m/s 729 mmHg 88%
    21:00 +7°C° 1 mm 6 m/s 729 mmHg 89%
    22:00 +8°C° 1 mm 6 m/s 729 mmHg 90%
    23:00 +7°C° 0.4 mm 6 m/s 729 mmHg 89%

    2 Februarie, Duminică

    Timp Temperatura Precipitaţii Vânt Presiune Umiditate
    00:00 +7°C° 0.4 mm 6 m/s 730 mmHg 88%
    01:00 +7°C° 0.4 mm 6 m/s 730 mmHg 87%
    02:00 +5°C° 0.8 mm 6 m/s 731 mmHg 81%
    03:00 +5°C° 0.8 mm 7 m/s 732 mmHg 76%
    04:00 +4°C° 0.8 mm 7 m/s 733 mmHg 71%
    05:00 +3°C° 0 mm 6 m/s 733 mmHg 72%
    06:00 +3°C° 0 mm 5 m/s 734 mmHg 72%
    07:00 +3°C° 0 mm 4 m/s 735 mmHg 73%
    08:00 +2°C° 0 mm 5 m/s 735 mmHg 71%
    09:00 +3°C° 0 mm 5 m/s 736 mmHg 69%
    10:00 +4°C° 0 mm 6 m/s 736 mmHg 67%
    11:00 +4°C° 0 mm 6 m/s 736 mmHg 65%
    12:00 +5°C° 0 mm 6 m/s 735 mmHg 63%
    13:00 +5°C° 0 mm 6 m/s 735 mmHg 61%
    14:00 +6°C° 0 mm 5 m/s 735 mmHg 63%
    15:00 +6°C° 0 mm 5 m/s 734 mmHg 64%
    16:00 +6°C° 0 mm 5 m/s 734 mmHg 66%
    17:00 +5°C° 0.4 mm 6 m/s 733 mmHg 71%
    18:00 +5°C° 0.4 mm 7 m/s 732 mmHg 75%
    19:00 +5°C° 0.4 mm 7 m/s 732 mmHg 80%
    20:00 +6°C° 0.7 mm 7 m/s 731 mmHg 81%
    21:00 +6°C° 0.7 mm 8 m/s 731 mmHg 83%
    22:00 +7°C° 0.7 mm 8 m/s 730 mmHg 84%
    23:00 +8°C° 0.2 mm 7 m/s 731 mmHg 85%
    Arată mai mult